Weather History for Pensacola NAS, FL

Change the Weather History Date:

Wednesday, March 27, 2013

  Actual Average Record
Temperature  
Mean Temperature 44 °F -  
Max Temperature 55 °F 69 °F 80 °F (2011)
Min Temperature 34 °F 51 °F 34 °F (2013)
Degree Days  
Heating Degree Days 21    
Moisture  
Dew Point 30 °F    
Average Humidity 57    
Maximum Humidity 93    
Minimum Humidity 33    
Precipitation  
Precipitation 0.00 in - - ()
Sea Level Pressure  
Sea Level Pressure 30.36 in    
Wind  
Wind Speed 7 mph (North)    
Max Wind Speed 12 mph    
Max Gust Speed 17 mph    
Visibility 10 miles    
Events      
Averages and records for this station are not official NWS values.
T = Trace of Precipitation, MM = Missing Value Source: NWS Daily Summary

Daily Weather History Graph

Daily Weather History Graph

Search for Another Location

Airport:

Trip Planner

Search our weather history database for the weather conditions in past years. The results will help you decide how hot, cold, wet, or windy it might be!

Date:

Astronomy

Mar. 27, 2013 Rise Set
Actual Time 6:44 AM CDT 7:05 PM CDT
Civil Twilight 6:20 AM CDT 7:29 PM CDT
Nautical Twilight 5:52 AM CDT 7:57 PM CDT
Astronomical Twilight 5:23 AM CDT 8:26 PM CDT
Moon 7:42 PM CDT (3/27) 6:38 AM CDT (3/27)
Length of Visible Light 13h 09m
Length of Day
12h 21m
Full, 100% of the Moon is Illuminated
Mar 27
Full
Apr 2
Last Quarter
Apr 10
New
Apr 18
First Quarter
Apr 25
Full

Hourly Weather History & Observations

Time (CDT) Temp. Windchill Dew Point Humidity Pressure Visibility Wind Dir Wind Speed Gust Speed Precip Events Conditions
12:56 AM 39.0 °F 35.7 °F 27.0 °F 62% 30.37 in 10.0 mi North 4.6 mph - N/A   Clear
1:56 AM 39.9 °F 33.4 °F 27.0 °F 60% 30.36 in 10.0 mi NNE 10.4 mph - N/A   Clear
2:56 AM 39.9 °F 33.4 °F 26.1 °F 58% 30.35 in 10.0 mi NNE 10.4 mph - N/A   Clear
3:56 AM 39.0 °F 32.3 °F 26.1 °F 60% 30.35 in 10.0 mi NNE 10.4 mph - N/A   Clear
4:56 AM 37.0 °F 32.4 °F 26.1 °F 65% 30.36 in 10.0 mi North 5.8 mph - N/A   Clear
5:56 AM 35.1 °F 31.0 °F 26.1 °F 70% 30.38 in 10.0 mi North 4.6 mph - N/A   Clear
6:56 AM 34.0 °F 28.8 °F 27.0 °F 75% 30.40 in 10.0 mi North 5.8 mph - N/A   Clear
7:56 AM 39.9 °F 34.5 °F 26.1 °F 58% 30.42 in 10.0 mi NNE 8.1 mph - N/A   Clear
8:56 AM 46.0 °F 40.6 °F 24.1 °F 42% 30.43 in 10.0 mi NE 11.5 mph - N/A   Clear
9:56 AM 48.0 °F - 23.0 °F 37% 30.44 in 10.0 mi NE 9.2 mph 17.3 mph N/A   Partly Cloudy
10:56 AM 48.9 °F - 23.0 °F 36% 30.43 in 10.0 mi NE 9.2 mph - N/A   Partly Cloudy
11:56 AM 53.6 °F - 24.8 °F 33% 30.42 in 10.0 mi NNW 8.1 mph - N/A   Partly Cloudy
12:56 PM 51.8 °F - 28.4 °F 41% 30.40 in 10.0 mi South 5.8 mph - N/A   Partly Cloudy
1:56 PM 53.6 °F - 30.2 °F 41% 30.36 in 10.0 mi SSE 8.1 mph - N/A   Partly Cloudy
2:56 PM 53.6 °F - 30.2 °F 41% 30.34 in 10.0 mi South 10.4 mph - N/A   Partly Cloudy
3:56 PM 53.6 °F - 33.8 °F 47% 30.31 in 10.0 mi SSW 11.5 mph - N/A   Scattered Clouds
4:56 PM 54.0 °F - 35.1 °F 49% 30.30 in 10.0 mi SSW 11.5 mph - N/A   Partly Cloudy
5:56 PM 54.0 °F - 37.0 °F 53% 30.30 in 10.0 mi SSW 9.2 mph - N/A   Clear
6:56 PM 52.0 °F - 39.0 °F 61% 30.31 in 10.0 mi SW 8.1 mph - N/A   Clear
7:56 PM 48.9 °F - 37.0 °F 64% 30.31 in 10.0 mi Calm Calm - N/A   Clear
8:56 PM 46.9 °F - 37.0 °F 68% 30.31 in 10.0 mi WNW 4.6 mph - N/A   Clear
9:56 PM 46.0 °F 44.8 °F 37.9 °F 73% 30.32 in 10.0 mi WNW 3.5 mph - N/A   Clear
10:56 PM 39.9 °F - 36.0 °F 86% 30.32 in 10.0 mi Calm Calm - N/A   Clear
11:56 PM 36.0 °F 33.3 °F 34.0 °F 93% 30.32 in 10.0 mi SSW 3.5 mph - N/A   Clear